When you browse on this site, cookies collect data to enhance your experience and personalize the content and advertising you see.
Visit our Privacy Policy to learn more. By continuing to use the site, you agree to this use of cookies and data.
  • En España
  • Lista de países
  • Para 7 días
  • Temperatura del agua
  • El tiempo en el mapa
  • Informadores
  • user-avatar
    Iniciar sesión

    Tiempo cada hora Saurimo

    Hoy, 28 Enero, Martes

    Tiempo Temperatura Precipitaciones Viento Presión Humedad
    00:00 +19°C° 0.1 mm 0 mps 670 mmHg 96%
    01:00 +21°C° 0 mm 1 mps 670 mmHg 96%
    02:00 +21°C° 0 mm 1 mps 670 mmHg 97%
    03:00 +20°C° 0 mm 1 mps 670 mmHg 97%
    04:00 +18°C° 0 mm 0 mps 670 mmHg 97%
    05:00 +21°C° 0 mm 1 mps 670 mmHg 97%
    06:00 +21°C° 0 mm 1 mps 671 mmHg 96%
    07:00 +21°C° 0 mm 1 mps 671 mmHg 96%
    08:00 +22°C° 0 mm 1 mps 672 mmHg 91%
    09:00 +23°C° 0 mm 1 mps 672 mmHg 86%
    10:00 +24°C° 0 mm 1 mps 672 mmHg 81%
    11:00 +26°C° 0 mm 1 mps 672 mmHg 74%
    12:00 +28°C° 0 mm 1 mps 672 mmHg 67%
    13:00 +30°C° 0 mm 1 mps 671 mmHg 60%
    14:00 +29°C° 0.5 mm 1 mps 671 mmHg 64%
    15:00 +28°C° 0.5 mm 1 mps 670 mmHg 67%
    16:00 +28°C° 0.5 mm 1 mps 669 mmHg 71%
    17:00 +26°C° 0.5 mm 1 mps 669 mmHg 78%
    18:00 +24°C° 0.5 mm 1 mps 669 mmHg 84%
    19:00 +20°C° 0.5 mm 0 mps 669 mmHg 91%
    20:00 +22°C° 0.1 mm 1 mps 669 mmHg 91%
    21:00 +22°C° 0.1 mm 1 mps 670 mmHg 91%
    22:00 +22°C° 0.1 mm 1 mps 670 mmHg 90%
    23:00 +21°C° 0.2 mm 1 mps 670 mmHg 91%

    Mañana, 29 Enero, Miércoles

    Tiempo Temperatura Precipitaciones Viento Presión Humedad
    00:00 +21°C° 0.2 mm 1 mps 670 mmHg 91%
    01:00 +19°C° 0.2 mm 0 mps 670 mmHg 91%
    02:00 +21°C° 0.7 mm 1 mps 670 mmHg 92%
    03:00 +20°C° 0.7 mm 1 mps 670 mmHg 93%
    04:00 +20°C° 0.7 mm 1 mps 670 mmHg 94%
    05:00 +20°C° 0.3 mm 1 mps 670 mmHg 94%
    06:00 +21°C° 0.3 mm 1 mps 671 mmHg 95%
    07:00 +21°C° 0.3 mm 1 mps 671 mmHg 95%
    08:00 +22°C° 0.6 mm 1 mps 671 mmHg 91%
    09:00 +24°C° 0.6 mm 2 mps 672 mmHg 87%
    10:00 +25°C° 0.6 mm 2 mps 672 mmHg 83%
    11:00 +26°C° 1.9 mm 2 mps 672 mmHg 82%
    12:00 +26°C° 1.9 mm 2 mps 671 mmHg 82%
    13:00 +26°C° 1.9 mm 2 mps 671 mmHg 81%
    14:00 +26°C° 1.1 mm 2 mps 670 mmHg 82%
    15:00 +25°C° 1.1 mm 2 mps 670 mmHg 83%
    16:00 +25°C° 1.1 mm 1 mps 669 mmHg 85%
    17:00 +24°C° 0.4 mm 1 mps 669 mmHg 86%
    18:00 +23°C° 0.4 mm 1 mps 670 mmHg 87%
    19:00 +22°C° 0.4 mm 1 mps 670 mmHg 89%
    20:00 +22°C° 0.1 mm 1 mps 670 mmHg 89%
    21:00 +21°C° 0.1 mm 1 mps 671 mmHg 89%
    22:00 +21°C° 0.1 mm 1 mps 671 mmHg 89%
    23:00 +21°C° 0.2 mm 1 mps 671 mmHg 91%

    Pasado mañana, 30 Enero, Jueves

    Tiempo Temperatura Precipitaciones Viento Presión Humedad
    00:00 +21°C° 0.2 mm 1 mps 670 mmHg 93%
    01:00 +20°C° 0.2 mm 1 mps 670 mmHg 95%
    02:00 +20°C° 0 mm 1 mps 670 mmHg 95%
    03:00 +20°C° 0 mm 1 mps 670 mmHg 95%
    04:00 +20°C° 0 mm 1 mps 669 mmHg 94%
    05:00 +21°C° 0 mm 1 mps 670 mmHg 94%
    06:00 +19°C° 0 mm 0 mps 671 mmHg 94%
    07:00 +19°C° 0 mm 0 mps 671 mmHg 94%
    08:00 +20°C° 0.2 mm 0 mps 672 mmHg 92%
    09:00 +20°C° 0.2 mm 0 mps 672 mmHg 90%
    10:00 +23°C° 0.2 mm 1 mps 672 mmHg 89%
    11:00 +24°C° 1.2 mm 1 mps 672 mmHg 86%
    12:00 +25°C° 1.2 mm 1 mps 672 mmHg 83%
    13:00 +26°C° 1.2 mm 1 mps 671 mmHg 80%
    14:00 +26°C° 1.1 mm 1 mps 671 mmHg 82%
    15:00 +25°C° 1.1 mm 1 mps 670 mmHg 84%
    16:00 +24°C° 1.1 mm 1 mps 670 mmHg 86%
    17:00 +23°C° 0.2 mm 1 mps 670 mmHg 89%
    18:00 +22°C° 0.2 mm 1 mps 670 mmHg 92%
    19:00 +21°C° 0.2 mm 1 mps 670 mmHg 95%
    20:00 +21°C° 0 mm 1 mps 670 mmHg 95%
    21:00 +21°C° 0 mm 1 mps 671 mmHg 95%
    22:00 +21°C° 0 mm 1 mps 671 mmHg 95%
    23:00 +21°C° 0 mm 1 mps 671 mmHg 95%

    31 Enero, Viernes

    Tiempo Temperatura Precipitaciones Viento Presión Humedad
    00:00 +21°C° 0 mm 1 mps 671 mmHg 95%
    01:00 +20°C° 0 mm 1 mps 671 mmHg 96%
    02:00 +20°C° 0 mm 1 mps 670 mmHg 96%
    03:00 +20°C° 0 mm 1 mps 670 mmHg 96%
    04:00 +20°C° 0 mm 1 mps 670 mmHg 97%
    05:00 +20°C° 0 mm 1 mps 671 mmHg 96%
    06:00 +21°C° 0 mm 1 mps 671 mmHg 96%
    07:00 +20°C° 0 mm 2 mps 672 mmHg 96%
    08:00 +20°C° 0.1 mm 2 mps 672 mmHg 93%
    09:00 +21°C° 0.1 mm 2 mps 672 mmHg 90%
    10:00 +23°C° 0.1 mm 2 mps 672 mmHg 87%
    11:00 +23°C° 0 mm 2 mps 671 mmHg 83%
    12:00 +24°C° 0 mm 2 mps 671 mmHg 79%
    13:00 +24°C° 0 mm 2 mps 670 mmHg 75%
    14:00 +25°C° 0 mm 2 mps 670 mmHg 75%
    15:00 +25°C° 0 mm 2 mps 669 mmHg 74%
    16:00 +25°C° 0 mm 2 mps 669 mmHg 74%
    17:00 +23°C° 0 mm 1 mps 669 mmHg 79%
    18:00 +22°C° 0 mm 1 mps 669 mmHg 83%
    19:00 +21°C° 0 mm 1 mps 669 mmHg 87%
    20:00 +20°C° 0 mm 1 mps 669 mmHg 89%
    21:00 +20°C° 0 mm 1 mps 670 mmHg 90%
    22:00 +19°C° 0 mm 1 mps 670 mmHg 91%
    23:00 +19°C° 0 mm 1 mps 670 mmHg 91%

    1 Febrero, Sábado

    Tiempo Temperatura Precipitaciones Viento Presión Humedad
    00:00 +19°C° 0 mm 1 mps 670 mmHg 91%
    01:00 +19°C° 0 mm 1 mps 669 mmHg 91%
    02:00 +19°C° 0 mm 1 mps 669 mmHg 92%
    03:00 +18°C° 0 mm 1 mps 669 mmHg 93%
    04:00 +18°C° 0 mm 1 mps 668 mmHg 94%
    05:00 +19°C° 0 mm 1 mps 669 mmHg 92%
    06:00 +20°C° 0 mm 1 mps 670 mmHg 90%
    07:00 +21°C° 0 mm 1 mps 670 mmHg 88%
    08:00 +23°C° 0 mm 2 mps 671 mmHg 81%
    09:00 +25°C° 0 mm 2 mps 671 mmHg 73%
    10:00 +27°C° 0 mm 2 mps 671 mmHg 66%
    11:00 +28°C° 0.1 mm 3 mps 671 mmHg 62%
    12:00 +29°C° 0.1 mm 3 mps 670 mmHg 58%
    13:00 +30°C° 0.1 mm 3 mps 670 mmHg 55%
    14:00 +29°C° 0 mm 3 mps 669 mmHg 57%
    15:00 +29°C° 0 mm 3 mps 668 mmHg 59%
    16:00 +29°C° 0 mm 3 mps 668 mmHg 60%
    17:00 +27°C° 0.1 mm 2 mps 668 mmHg 68%
    18:00 +25°C° 0.1 mm 2 mps 668 mmHg 76%
    19:00 +23°C° 0.1 mm 2 mps 668 mmHg 84%
    20:00 +21°C° 0 mm 2 mps 669 mmHg 86%
    21:00 +20°C° 0 mm 2 mps 669 mmHg 89%
    22:00 +20°C° 0 mm 2 mps 670 mmHg 91%
    23:00 +19°C° 0 mm 2 mps 669 mmHg 92%

    2 Febrero, Domingo

    Tiempo Temperatura Precipitaciones Viento Presión Humedad
    00:00 +20°C° 0 mm 1 mps 669 mmHg 93%
    01:00 +20°C° 0 mm 1 mps 669 mmHg 95%
    02:00 +19°C° 0 mm 1 mps 669 mmHg 94%
    03:00 +19°C° 0 mm 1 mps 669 mmHg 94%
    04:00 +19°C° 0 mm 1 mps 669 mmHg 94%
    05:00 +19°C° 0 mm 1 mps 669 mmHg 92%
    06:00 +20°C° 0 mm 1 mps 670 mmHg 91%
    07:00 +20°C° 0 mm 2 mps 670 mmHg 89%
    08:00 +21°C° 0.1 mm 2 mps 671 mmHg 83%
    09:00 +24°C° 0.1 mm 2 mps 671 mmHg 77%
    10:00 +26°C° 0.1 mm 3 mps 671 mmHg 71%
    11:00 +27°C° 0.2 mm 3 mps 671 mmHg 65%
    12:00 +28°C° 0.2 mm 3 mps 670 mmHg 60%
    13:00 +29°C° 0.2 mm 4 mps 670 mmHg 54%
    14:00 +29°C° 0.1 mm 3 mps 670 mmHg 57%
    15:00 +29°C° 0.1 mm 3 mps 669 mmHg 60%
    16:00 +28°C° 0.1 mm 3 mps 669 mmHg 63%
    17:00 +26°C° 0 mm 2 mps 669 mmHg 71%
    18:00 +24°C° 0 mm 2 mps 669 mmHg 78%
    19:00 +23°C° 0 mm 1 mps 669 mmHg 85%
    20:00 +22°C° 0 mm 1 mps 669 mmHg 87%
    21:00 +22°C° 0 mm 1 mps 669 mmHg 89%
    22:00 +21°C° 0 mm 1 mps 670 mmHg 91%
    23:00 +21°C° 0 mm 1 mps 670 mmHg 92%
    Mostrar más